THOR ALTAIR DEB, 1931

Orbit data source: Space-Track

THOR ALTAIR DEB, 1931 is space debris in SSO originally from a launch on Fri, 10 Sep 1965 UTC launched from the Air Force Western Test Range (AFWTR). Debris objects in space refer to the collection of defunct objects orbiting the Earth. Examples of debris include non-operational satellites, rocket bodies, and fragments generated from explosions, collisions, or faulty payload assembly.

Loading next visibility...
Identifier
1931, 1965-072E
Orbit
SSO
Country
Flag of USUS
Related business
Manufacturer
Unknown
Mission
Spacecraft
Bus & Motor
Unknown
Mass
Unknown
Launch date (UTC)
1965-09-10 (61 years ago)
Launch vehicle
Unknown
Launch site
Air Force Western Test Range (AFWTR)
Object type
Payload
Rocket body
Debris
Shape & HBR
Unknown shape, 0.1 m
Radar Cross Section
Medium (>0.1 m² and <1 m²)

Expand to show TLE details & history
Last TLE update: 1 day ago

TLE from 1 day ago
0 THOR ALTAIR DEB
1 01931U 65072E   26264.08737149  .00000484  00000-0  13754-3 0  9992
2 01931  98.9980 304.9301 0236046 155.7301 205.5220 14.35282377206604
Epoch: 2026-09-21T02:05Z
TLE epoch observation values (Epoch: 2026-09-21T02:05:48.896Z)
Latitude
-0°
Longitude
-86.49587°
Altitude
930.157 km
Speed
7.307 km/s
True Right ascension
20h 19m 43s
True Declination
0° 00' 00"
Sunlit
Object was in full shadow at epoch
Visualization orbit readout
Latitude
Unknown
Longitude
Unknown
Altitude
Unknown
Speed
Unknown
Apparent Right ascension
Unknown
Apparent Declination
Unknown
Sunlit
N/A
Visualization observer readout
Local Sidereal Time
03:21:36
Azimuth
Unknown
Elevation
Unknown
Doppler factor
Unknown
Orbital elements
Apogee altitude
940.037 km
Perigee altitude
602.519 km
Semi-major axis
7,149.415 km
Eccentricity
0.0236
Inclination
98.998°
RAAN
304.9301°
Arg. of periapsis
155.7301°
True anomaly
204.38691°
Mean anomaly
205.522°
Eccentric anomaly
204.95147°
Mean motion
3.59036 °/min
Orbital period
100.27 mins
BSTAR
0.00013754
Loading maneuver chart data...
Computing Atmospheric mass density...
Loading historical data...
Loading historical data...
Loading historical data...
Loading historical data...
Loading historical data...
Loading historical data...
Loading historical data...

Documentation

Showing up to 5 results
|